Regional Weather Roundup
Issued by NWS

Home | Current Version | Previous Version | Text Only | Print | Product List | Glossary Off
Versions: 1 2 3 4 5 6 7 8 9 10 11 12 13 14 15 16 17 18 19 20 21 22 23 24 25 26 27 28 29 30 31 32 33 34 35 36 37 38 39 40 41 42 43 44 45 46 47 48 49 50

000
ASUS45 KSLC 300310
RWRUT

UTAH REGIONAL WEATHER ROUNDUP
NATIONAL WEATHER SERVICE SALT LAKE CITY UT
900 PM MDT MON JUN 29 2015

UTZ001>011-023>025-300400-

NORTHERN UTAH

CITY           SKY/WX    TMP DP  RH WIND       PRES   REMARKS
BRIGHAM CITY   MOCLDY    92  56  29 N3        29.98S HX  90
HILL AFB       MOCLDY    88  52  28 E5        30.03S
LOGAN          CLOUDY    87  55  33 SE6       30.00S
OGDEN          MOCLDY    91  53  27 NE3       29.99S
PROVO AIRPORT  PTCLDY    88  48  25 SE12      30.03R
SALT LAKE CITY MOCLDY    95  49  20 CALM      29.95F HX  92
VERNAL         MOCLDY    86  47  25 NW8       30.09R
WENDOVER       MOCLDY    97  43  15 NW6       29.98F HX  92
HEBER CITY     MOCLDY    81  50  34 S3        30.13S
WEST JORDAN    CLEAR     90  48  24 SW7       30.01S

$$

UTZ012>022-026-027-300400-

SOUTHERN/CENTRAL UTAH

CITY           SKY/WX    TMP DP  RH WIND       PRES   REMARKS
BLANDING       PTCLDY    79  46  30 N5        30.21R
BRYCE CANYON   MOCLDY    69  45  41 SW7       30.33S
CEDAR CITY     MOCLDY    84  43  23 SE5       30.13S
DELTA          MOCLDY    89  41  18 NE7       30.05R
HANKSVILLE     MOCLDY    95  37  13 NE8       30.00S HX  90
MILFORD        MOCLDY    89  43  20 W13       30.06R
MOAB/CYNLANDS  PTCLDY    89  40  17 W5        29.97S
PRICE          MOCLDY    82  41  23 NW3       30.15S
ST GEORGE      MOCLDY    99  46  16 SW14      29.89S HX  95
KANAB          CLOUDY    82  55  39 S9        30.18R

$$

REGIONAL REPORTS     COLORADO/ARIZONA

CITY           SKY/WX    TMP DP  RH WIND       PRES   REMARKS
CRAIG, CO      PTCLDY    79  43  27 VRB3      30.21R
GRAND JUNCTION CLEAR     88  39  17 NE10      30.02S
RIFLE          CLEAR     85  43  22 W5        30.11S
MONTROSE       PTCLDY    87  43  21 NE5       30.13R
CORTEZ         PTCLDY    74  52  46 NE6       30.15R
PAGE, AZ       PTCLDY    96  41  15 SW7       29.99R HX  92
GRAND CANYON   MOCLDY    70  57  63 CALM      30.27R
KINGMAN        MOCLDY    86  53  32 SE5       30.00S
FLAGSTAFF      LGT RAIN  62  56  80 SW5       30.33R

$$

REGIONAL REPORTS    NEVADA/IDAHO/WYOMING

CITY           SKY/WX    TMP DP  RH WIND       PRES   REMARKS
LAS VEGAS, NV  CLOUDY   102  48  16 SW8       29.80F HX  98
ELY            PTCLDY    85  39  19 S5        30.17S
ELKO           PTCLDY    86  46  24 CALM      30.09R
POCATELLO, ID  CLOUDY    82  51  34 NE16      30.05R
BURLEY         CLOUDY    81  54  39 SW14      30.02R
EVANSTON, WY   PTCLDY    81  41  24 CALM      30.27S
ROCK SPRINGS   NOT AVBL
KEMMERER       PTCLDY    75  36  23 E3        30.30S

$$



USA.gov is the U.S. government's official web portal to all federal, state and local government web resources and services.